• In Romania
  • List of Countries
  • For 7 days
  • Water Temperature
  • Satellite Maps
  • Weather Map
  • Weather Widgets
  • user-avatar
    Login

    Hourly Weather Brisbane

    Today, 22 July, Saturday

    Time Temperature Precipitation Wind Pressure Humidity
    00:00 +10°C° 0 mm 2 mps 765 mmHg 60%
    01:00 +10°C° 0 mm 2 mps 765 mmHg 61%
    02:00 +9°C° 0 mm 2 mps 765 mmHg 62%
    03:00 +9°C° 0 mm 2 mps 765 mmHg 63%
    04:00 +9°C° 0 mm 3 mps 765 mmHg 66%
    05:00 +9°C° 0 mm 3 mps 765 mmHg 68%
    06:00 +9°C° 0 mm 3 mps 765 mmHg 71%
    07:00 +9°C° 0 mm 3 mps 766 mmHg 73%
    08:00 +13°C° 0 mm 2 mps 766 mmHg 65%
    09:00 +16°C° 0 mm 2 mps 766 mmHg 58%
    10:00 +19°C° 0 mm 2 mps 766 mmHg 47%
    11:00 +20°C° 0 mm 2 mps 765 mmHg 45%
    12:00 +21°C° 0 mm 2 mps 765 mmHg 42%
    13:00 +24°C° 0 mm 1 mps 764 mmHg 40%
    14:00 +23°C° 0 mm 2 mps 764 mmHg 43%
    15:00 +21°C° 0 mm 2 mps 764 mmHg 45%
    16:00 +21°C° 0 mm 2 mps 763 mmHg 48%
    17:00 +19°C° 0 mm 2 mps 763 mmHg 57%
    18:00 +18°C° 0 mm 1 mps 764 mmHg 66%
    19:00 +15°C° 0 mm 1 mps 764 mmHg 74%
    20:00 +15°C° 0 mm 1 mps 764 mmHg 78%
    21:00 +14°C° 0 mm 1 mps 765 mmHg 81%
    22:00 +14°C° 0 mm 1 mps 765 mmHg 84%
    23:00 +14°C° 0 mm 1 mps 765 mmHg 86%

    Tomorrow, 23 July, Sunday

    Time Temperature Precipitation Wind Pressure Humidity
    00:00 +13°C° 0 mm 1 mps 765 mmHg 88%
    01:00 +13°C° 0 mm 1 mps 765 mmHg 89%
    02:00 +12°C° 0 mm 1 mps 764 mmHg 90%
    03:00 +12°C° 0 mm 2 mps 764 mmHg 90%
    04:00 +12°C° 0 mm 2 mps 764 mmHg 90%
    05:00 +12°C° 0 mm 2 mps 765 mmHg 89%
    06:00 +12°C° 0 mm 2 mps 765 mmHg 88%
    07:00 +10°C° 0 mm 2 mps 765 mmHg 87%
    08:00 +14°C° 0 mm 2 mps 765 mmHg 76%
    09:00 +17°C° 0 mm 3 mps 765 mmHg 65%
    10:00 +20°C° 0 mm 3 mps 765 mmHg 54%
    11:00 +21°C° 0 mm 3 mps 764 mmHg 47%
    12:00 +24°C° 0 mm 3 mps 763 mmHg 39%
    13:00 +25°C° 0 mm 2 mps 763 mmHg 32%
    14:00 +25°C° 0 mm 2 mps 762 mmHg 34%
    15:00 +25°C° 0 mm 3 mps 762 mmHg 35%
    16:00 +24°C° 0 mm 3 mps 762 mmHg 36%
    17:00 +21°C° 0 mm 3 mps 762 mmHg 42%
    18:00 +19°C° 0 mm 2 mps 763 mmHg 48%
    19:00 +17°C° 0 mm 2 mps 763 mmHg 55%
    20:00 +16°C° 0 mm 2 mps 763 mmHg 54%
    21:00 +15°C° 0 mm 2 mps 764 mmHg 53%
    22:00 +14°C° 0 mm 2 mps 764 mmHg 52%
    23:00 +14°C° 0 mm 2 mps 764 mmHg 51%

    Day after tomorrow, 24 July, Monday

    Time Temperature Precipitation Wind Pressure Humidity
    00:00 +13°C° 0 mm 2 mps 764 mmHg 50%
    01:00 +13°C° 0 mm 2 mps 764 mmHg 50%
    02:00 +12°C° 0 mm 2 mps 764 mmHg 49%
    03:00 +12°C° 0 mm 2 mps 763 mmHg 49%
    04:00 +10°C° 0 mm 2 mps 763 mmHg 49%
    05:00 +10°C° 0 mm 2 mps 764 mmHg 48%
    06:00 +10°C° 0 mm 2 mps 764 mmHg 47%
    07:00 +10°C° 0 mm 2 mps 765 mmHg 46%
    08:00 +14°C° 0 mm 2 mps 765 mmHg 40%
    09:00 +18°C° 0 mm 2 mps 765 mmHg 35%
    10:00 +21°C° 0 mm 2 mps 765 mmHg 29%
    11:00 +23°C° 0 mm 1 mps 765 mmHg 27%
    12:00 +25°C° 0 mm 1 mps 764 mmHg 24%
    13:00 +27°C° 0 mm 1 mps 763 mmHg 22%
    14:00 +26°C° 0 mm 1 mps 763 mmHg 25%
    15:00 +26°C° 0 mm 2 mps 763 mmHg 27%
    16:00 +25°C° 0 mm 2 mps 763 mmHg 30%
    17:00 +23°C° 0 mm 2 mps 763 mmHg 36%
    18:00 +20°C° 0 mm 1 mps 764 mmHg 42%
    19:00 +18°C° 0 mm 1 mps 764 mmHg 48%
    20:00 +16°C° 0 mm 1 mps 765 mmHg 50%
    21:00 +15°C° 0 mm 1 mps 765 mmHg 52%
    22:00 +14°C° 0 mm 1 mps 766 mmHg 54%
    23:00 +14°C° 0 mm 2 mps 765 mmHg 54%

    25 July, Tuesday

    Time Temperature Precipitation Wind Pressure Humidity
    00:00 +13°C° 0 mm 2 mps 765 mmHg 54%
    01:00 +13°C° 0 mm 2 mps 765 mmHg 54%
    02:00 +13°C° 0 mm 2 mps 765 mmHg 54%
    03:00 +12°C° 0 mm 2 mps 765 mmHg 54%
    04:00 +12°C° 0 mm 2 mps 765 mmHg 54%
    05:00 +12°C° 0 mm 2 mps 765 mmHg 54%
    06:00 +12°C° 0 mm 2 mps 766 mmHg 54%
    07:00 +10°C° 0 mm 2 mps 766 mmHg 54%
    08:00 +14°C° 0 mm 2 mps 766 mmHg 47%
    09:00 +18°C° 0 mm 2 mps 766 mmHg 40%
    10:00 +22°C° 0 mm 1 mps 767 mmHg 33%
    11:00 +23°C° 0 mm 1 mps 766 mmHg 30%
    12:00 +25°C° 0 mm 1 mps 765 mmHg 28%
    13:00 +26°C° 0 mm 1 mps 764 mmHg 25%
    14:00 +25°C° 0 mm 1 mps 764 mmHg 27%
    15:00 +25°C° 0 mm 1 mps 764 mmHg 30%
    16:00 +24°C° 0 mm 2 mps 764 mmHg 33%
    17:00 +21°C° 0 mm 2 mps 764 mmHg 43%
    18:00 +18°C° 0 mm 2 mps 765 mmHg 53%
    19:00 +16°C° 0 mm 2 mps 765 mmHg 63%
    20:00 +15°C° 0 mm 1 mps 765 mmHg 67%
    21:00 +15°C° 0 mm 1 mps 766 mmHg 70%
    22:00 +14°C° 0 mm 1 mps 766 mmHg 74%
    23:00 +14°C° 0 mm 1 mps 766 mmHg 73%

    26 July, Wednesday

    Time Temperature Precipitation Wind Pressure Humidity
    00:00 +13°C° 0 mm 1 mps 765 mmHg 72%
    01:00 +13°C° 0 mm 2 mps 765 mmHg 71%
    02:00 +12°C° 0 mm 2 mps 765 mmHg 69%
    03:00 +12°C° 0 mm 2 mps 765 mmHg 66%
    04:00 +12°C° 0 mm 2 mps 765 mmHg 64%
    05:00 +10°C° 0 mm 2 mps 765 mmHg 63%
    06:00 +10°C° 0 mm 2 mps 766 mmHg 62%
    07:00 +10°C° 0 mm 2 mps 766 mmHg 61%
    08:00 +14°C° 0 mm 2 mps 766 mmHg 52%
    09:00 +17°C° 0 mm 2 mps 766 mmHg 44%
    10:00 +20°C° 0 mm 2 mps 766 mmHg 36%
    11:00 +21°C° 0 mm 2 mps 765 mmHg 31%
    12:00 +24°C° 0 mm 2 mps 764 mmHg 26%
    13:00 +26°C° 0 mm 2 mps 763 mmHg 22%
    14:00 +25°C° 0 mm 2 mps 763 mmHg 24%
    15:00 +25°C° 0 mm 2 mps 763 mmHg 26%
    16:00 +25°C° 0 mm 2 mps 762 mmHg 28%
    17:00 +22°C° 0 mm 3 mps 763 mmHg 33%
    18:00 +20°C° 0 mm 3 mps 763 mmHg 38%
    19:00 +18°C° 0 mm 3 mps 764 mmHg 43%
    20:00 +17°C° 0 mm 3 mps 764 mmHg 45%
    21:00 +16°C° 0 mm 3 mps 764 mmHg 47%
    22:00 +16°C° 0 mm 3 mps 764 mmHg 49%
    23:00 +14°C° 0 mm 3 mps 764 mmHg 50%

    27 July, Thursday

    Time Temperature Precipitation Wind Pressure Humidity
    00:00 +14°C° 0 mm 3 mps 764 mmHg 51%
    01:00 +14°C° 0 mm 2 mps 763 mmHg 53%
    02:00 +13°C° 0 mm 3 mps 764 mmHg 53%
    03:00 +13°C° 0 mm 3 mps 764 mmHg 54%
    04:00 +12°C° 0 mm 3 mps 764 mmHg 54%
    05:00 +12°C° 0 mm 3 mps 764 mmHg 55%
    06:00 +12°C° 0 mm 3 mps 765 mmHg 56%
    07:00 +12°C° 0 mm 3 mps 765 mmHg 57%
    08:00 +16°C° 0 mm 3 mps 765 mmHg 51%
    09:00 +18°C° 0 mm 3 mps 765 mmHg 44%
    10:00 +21°C° 0 mm 3 mps 765 mmHg 37%
    11:00 +22°C° 0 mm 3 mps 765 mmHg 31%
    12:00 +24°C° 0 mm 3 mps 764 mmHg 25%
    13:00 +26°C° 0 mm 3 mps 763 mmHg 19%
    14:00 +25°C° 0 mm 3 mps 763 mmHg 22%
    15:00 +24°C° 0 mm 3 mps 763 mmHg 26%
    16:00 +23°C° 0 mm 4 mps 763 mmHg 29%
    17:00 +20°C° 0 mm 4 mps 764 mmHg 38%
    18:00 +18°C° 0 mm 3 mps 765 mmHg 47%
    19:00 +16°C° 0 mm 3 mps 765 mmHg 57%
    20:00 +14°C° 0 mm 3 mps 766 mmHg 60%
    21:00 +14°C° 0 mm 3 mps 766 mmHg 64%
    22:00 +14°C° 0 mm 2 mps 767 mmHg 67%
    23:00 +14°C° 0 mm 2 mps 767 mmHg 69%
    Show more